timestamp,surface_pressure_avg,surface_temp_avg,battery_voltage,lat,long
2022-08-04 00:09:00+00:00,244.0847,20.5,11.86,47.84626,-54.09684
2022-08-04 00:19:00+00:00,247.5514,20.5,11.86,47.84626,-54.09684
2022-08-04 00:29:00+00:00,249.7197,20.5,11.86,47.84626,-54.09684
2022-08-04 00:39:00+00:00,253.6148,20.5,11.86,47.84626,-54.09684
2022-08-04 00:49:00+00:00,260.7331,20.5,11.86,47.84626,-54.09684
2022-08-04 00:59:00+00:00,266.6381,20.5,11.86,47.84626,-54.09684
2022-08-04 01:09:00+00:00,271.1431,20.5,11.86,47.84626,-54.09684
2022-08-04 01:19:00+00:00,278.5131,20.5,11.77,47.84626,-54.09684
2022-08-04 01:29:00+00:00,286.958,20.5,11.77,47.84626,-54.09684
2022-08-04 01:39:00+00:00,292.3647,20.5,11.77,47.84626,-54.09684
2022-08-04 01:49:00+00:00,298.5414,20.5,11.77,47.84626,-54.09684
2022-08-04 01:59:00+00:00,306.233,20.5,11.77,47.84626,-54.09684
2022-08-04 02:09:00+00:00,313.7279,20.5,11.77,47.84626,-54.09684
2022-08-04 02:19:00+00:00,318.9947,20.53,11.86,47.84626,-54.09684
2022-08-04 02:29:00+00:00,326.3196,20.57,11.86,47.84626,-54.09684
2022-08-04 02:39:00+00:00,329.7096,20.59,11.86,47.84626,-54.09684
2022-08-04 02:49:00+00:00,331.6146,20.59,11.86,47.84626,-54.09684
2022-08-04 02:59:00+00:00,334.1063,20.59,11.86,47.84626,-54.09684
2022-08-04 03:09:00+00:00,334.4263,20.59,11.86,47.84626,-54.09684
2022-08-04 03:19:01+00:00,331.6330000000001,20.59,11.77,47.84626,-54.09684
2022-08-04 03:29:01+00:00,331.5997,20.59,11.77,47.84626,-54.09684
2022-08-04 03:39:01+00:00,336.7263,20.59,11.77,47.84626,-54.09684
2022-08-04 03:49:01+00:00,337.4246,20.58,11.77,47.84626,-54.09684
2022-08-04 03:59:01+00:00,335.5813,20.57,11.77,47.84626,-54.09684
2022-08-04 04:09:01+00:00,336.163,20.58,11.77,47.84626,-54.09684
2022-08-04 04:19:01+00:00,336.723,20.58,11.77,47.84626,-54.09684
2022-08-04 04:29:01+00:00,335.4246,20.58,11.77,47.84626,-54.09684
2022-08-04 04:39:01+00:00,333.8281,20.58,11.77,47.84626,-54.09684
2022-08-04 04:49:01+00:00,334.5713,20.58,11.77,47.84626,-54.09684
2022-08-04 04:59:01+00:00,334.1896,20.57,11.77,47.84626,-54.09684
2022-08-04 05:09:01+00:00,327.798,20.53,11.77,47.84626,-54.09684
2022-08-04 05:19:01+00:00,323.3314,20.53,11.77,47.84626,-54.09684
2022-08-04 05:29:01+00:00,321.323,20.52,11.77,47.84626,-54.09684
2022-08-04 05:39:01+00:00,315.428,20.51,11.77,47.84626,-54.09684
2022-08-04 05:49:01+00:00,308.193,20.5,11.77,47.84626,-54.09684
2022-08-04 05:59:01+00:00,305.8831,20.5,11.77,47.84626,-54.09684
2022-08-04 06:09:01+00:00,301.533,20.5,11.77,47.84626,-54.09684
2022-08-04 06:19:01+00:00,292.1947,20.5,11.77,47.84626,-54.09684
2022-08-04 06:29:01+00:00,284.8664,20.5,11.77,47.84626,-54.09684
2022-08-04 06:39:01+00:00,278.8264,20.5,11.77,47.84626,-54.09684
2022-08-04 06:49:01+00:00,271.6797,20.5,11.77,47.84626,-54.09684
2022-08-04 06:59:01+00:00,262.4247,20.5,11.77,47.84626,-54.09684
2022-08-04 07:09:01+00:00,257.0764,20.5,11.77,47.84626,-54.09684
2022-08-04 07:19:01+00:00,250.6581,20.5,11.77,47.84626,-54.09684
2022-08-04 07:29:01+00:00,240.5664,20.5,11.77,47.84626,-54.09684
2022-08-04 07:39:01+00:00,232.1031,20.53,11.77,47.84626,-54.09684
2022-08-04 07:49:01+00:00,226.1431,20.56,11.77,47.84626,-54.09684
2022-08-04 07:59:01+00:00,221.5981,20.56,11.77,47.84626,-54.09684
2022-08-04 08:09:01+00:00,216.0014,20.55,11.77,47.84626,-54.09684
2022-08-04 08:19:01+00:00,211.7581,20.55,11.77,47.84626,-54.09684
2022-08-04 08:29:01+00:00,209.9964,20.54,11.77,47.84626,-54.09684
2022-08-04 08:39:01+00:00,206.9048,20.55,11.77,47.84626,-54.09684
2022-08-04 08:49:01+00:00,201.3131,20.57,11.77,47.84626,-54.09684
2022-08-04 08:59:01+00:00,197.4131,20.58,11.77,47.84626,-54.09684
2022-08-04 09:09:01+00:00,196.9198,20.58,11.77,47.84626,-54.09684
2022-08-04 09:19:00+00:00,199.3148,20.57,11.77,47.84626,-54.09684
2022-08-04 09:29:00+00:00,197.6014,20.57,11.77,47.84626,-54.09684
2022-08-04 09:39:00+00:00,194.8498,20.59,11.77,47.84626,-54.09684
2022-08-04 09:49:00+00:00,197.4498,20.6,11.77,47.84626,-54.09684
2022-08-04 09:59:00+00:00,199.5981,20.6,11.77,47.84626,-54.09684
2022-08-04 10:09:00+00:00,200.7381,20.6,11.77,47.84626,-54.09684
2022-08-04 10:19:01+00:00,204.3598,20.6,11.77,47.84626,-54.09684
2022-08-04 10:29:01+00:00,210.0148,20.6,11.77,47.84626,-54.09684
2022-08-04 10:39:01+00:00,212.2498,20.6,11.77,47.84626,-54.09684
2022-08-04 10:49:01+00:00,215.9565,20.6,11.77,47.84626,-54.09684
2022-08-04 10:59:01+00:00,220.4598,20.6,11.77,47.84626,-54.09684
2022-08-04 11:09:01+00:00,223.0631,20.6,11.77,47.84626,-54.09684
2022-08-04 11:19:00+00:00,226.3097,20.6,11.77,47.84626,-54.09684
2022-08-04 11:29:00+00:00,231.0464,20.6,11.77,47.84626,-54.09684
2022-08-04 11:39:00+00:00,233.4114,20.6,11.77,47.84626,-54.09684
2022-08-04 11:49:00+00:00,234.5015,20.6,11.77,47.84626,-54.09684
2022-08-04 11:59:00+00:00,237.0464,20.64,11.77,47.84626,-54.09684
2022-08-04 12:09:00+00:00,240.8614,20.65,11.77,47.84626,-54.09684
2022-08-04 12:19:00+00:00,244.3198,20.65,11.77,47.84626,-54.09684
2022-08-04 12:29:00+00:00,247.6747,20.64,11.77,47.84626,-54.09684
2022-08-04 12:39:00+00:00,249.8514,20.6,11.77,47.84626,-54.09684
2022-08-04 12:49:00+00:00,253.3698,20.6,11.77,47.84626,-54.09684
2022-08-04 12:59:00+00:00,257.7531,20.6,11.77,47.84626,-54.09684
2022-08-04 13:09:00+00:00,260.7981,20.6,11.77,47.84626,-54.09684
2022-08-04 13:19:00+00:00,263.4481,20.58,11.77,47.84626,-54.09684
2022-08-04 13:29:00+00:00,267.4881,20.57,11.77,47.84626,-54.09684
2022-08-04 13:39:00+00:00,272.3664,20.5,11.77,47.84626,-54.09684
2022-08-04 13:49:00+00:00,277.4514,20.4,11.77,47.84626,-54.09684
2022-08-04 13:59:00+00:00,284.828,20.39,11.77,47.84626,-54.09684
2022-08-04 14:09:00+00:00,294.1047,20.39,11.77,47.84626,-54.09684
2022-08-04 14:19:00+00:00,302.46299999999997,20.39,11.77,47.84626,-54.09684
2022-08-04 14:29:00+00:00,307.1364,20.37,11.77,47.84626,-54.09684
2022-08-04 14:39:00+00:00,312.3013,20.34,11.77,47.84626,-54.09684
2022-08-04 14:49:00+00:00,320.9797,20.34,11.77,47.84626,-54.09684
2022-08-04 14:59:00+00:00,327.2979,20.38,11.77,47.84626,-54.09684
2022-08-04 15:09:00+00:00,327.0179,20.39,11.77,47.84626,-54.09684
2022-08-04 15:19:00+00:00,328.4863,20.4,11.86,47.84626,-54.09684
2022-08-04 15:29:00+00:00,331.0213,20.4,11.86,47.84626,-54.09684
2022-08-04 15:39:00+00:00,332.348,20.4,11.86,47.84626,-54.09684
2022-08-04 15:49:00+00:00,329.5996,20.4,11.86,47.84626,-54.09684
2022-08-04 15:59:00+00:00,331.6163,20.4,11.86,47.84626,-54.09684
2022-08-04 16:09:00+00:00,332.3246,20.4,11.86,47.84626,-54.09684
2022-08-04 16:19:00+00:00,330.2480000000001,20.4,12.01,47.84626,-54.09684
2022-08-04 16:29:00+00:00,329.9163,20.4,12.01,47.84626,-54.09684
2022-08-04 16:39:00+00:00,331.6913,20.4,12.01,47.84626,-54.09684
2022-08-04 16:49:00+00:00,331.398,20.4,12.01,47.84626,-54.09684
2022-08-04 16:59:00+00:00,326.9329,20.4,12.01,47.84626,-54.09684
2022-08-04 17:09:00+00:00,324.6364,20.4,12.01,47.84626,-54.09684
2022-08-04 17:19:01+00:00,322.8829,20.4,12.01,47.84626,-54.09684
2022-08-04 17:29:01+00:00,319.8813,20.4,12.01,47.84626,-54.09684
2022-08-04 17:39:01+00:00,317.7463,20.4,12.01,47.84626,-54.09684
2022-08-04 17:49:01+00:00,315.0963,20.4,12.01,47.84626,-54.09684
2022-08-04 17:59:01+00:00,311.303,20.45,12.01,47.84626,-54.09684
2022-08-04 18:09:01+00:00,308.3963,20.47,12.01,47.84626,-54.09684
2022-08-04 18:19:01+00:00,304.8763,20.49,12.01,47.84626,-54.09684
2022-08-04 18:29:01+00:00,297.3731,20.49,12.01,47.84626,-54.09684
2022-08-04 18:39:01+00:00,290.5314,20.4,12.01,47.84626,-54.09684
2022-08-04 18:49:01+00:00,285.8748,20.3,12.01,47.84626,-54.09684
2022-08-04 18:59:01+00:00,280.8848,20.1,12.01,47.84626,-54.09684
2022-08-04 19:09:01+00:00,271.5431,20.0,12.01,47.84626,-54.09684
2022-08-04 19:19:00+00:00,260.3797,20.08,11.93,47.84626,-54.09684
2022-08-04 19:29:00+00:00,253.6081,20.1,11.93,47.84626,-54.09684
2022-08-04 19:39:00+00:00,248.6414,20.1,11.93,47.84626,-54.09684
2022-08-04 19:49:00+00:00,238.9731,20.18,11.93,47.84626,-54.09684
2022-08-04 19:59:00+00:00,230.6281,20.28,11.93,47.84626,-54.09684
2022-08-04 20:09:00+00:00,229.8964,20.3,11.93,47.84626,-54.09684
2022-08-04 20:19:00+00:00,226.5447,20.3,11.93,47.84626,-54.09684
2022-08-04 20:29:00+00:00,216.4648,20.39,11.93,47.84626,-54.09684
2022-08-04 20:39:00+00:00,211.1048,20.45,11.93,47.84626,-54.09684
2022-08-04 20:49:00+00:00,213.6264,20.5,11.93,47.84626,-54.09684
2022-08-04 20:59:00+00:00,211.2881,20.6,11.93,47.84626,-54.09684
2022-08-04 21:09:00+00:00,205.1531,20.68,11.93,47.84626,-54.09684
2022-08-04 21:19:00+00:00,203.7581,20.7,11.93,47.84626,-54.09684
2022-08-04 21:29:00+00:00,204.3214,20.7,11.93,47.84626,-54.09684
2022-08-04 21:39:00+00:00,203.1647,20.73,11.93,47.84626,-54.09684
2022-08-04 21:49:00+00:00,201.6248,20.78,11.93,47.84626,-54.09684
2022-08-04 21:59:00+00:00,201.8581,20.79,11.93,47.84626,-54.09684
2022-08-04 22:09:00+00:00,203.0114,20.7,11.93,47.84626,-54.09684
2022-08-04 22:19:00+00:00,204.0431,20.7,11.86,47.84626,-54.09684
2022-08-04 22:29:00+00:00,205.7081,20.7,11.86,47.84626,-54.09684
2022-08-04 22:39:00+00:00,208.0131,20.7,11.86,47.84626,-54.09684
2022-08-04 22:49:00+00:00,210.1298,20.7,11.86,47.84626,-54.09684
2022-08-04 22:59:00+00:00,212.1898,20.7,11.86,47.84626,-54.09684
2022-08-04 23:09:00+00:00,213.4214,20.7,11.86,47.84626,-54.09684
2022-08-04 23:19:00+00:00,212.6281,20.7,11.86,47.84626,-54.09684
2022-08-04 23:29:00+00:00,212.2298,20.7,11.86,47.84626,-54.09684
2022-08-04 23:39:00+00:00,214.1231,20.7,11.86,47.84626,-54.09684
2022-08-04 23:49:00+00:00,215.1331,20.7,11.86,47.84626,-54.09684
2022-08-04 23:59:00+00:00,214.3081,20.7,11.86,47.84626,-54.09684
